DW8284 Weather Reports


Display with metric or nautical units.
time (UTC)temp
F
wind
direction
speed
MPH
gust
MPH
rain 1hr
in
rain 24hr
in
rain mn
in
humidity
%
barometer
mb
20260506213049 58 51 1.0 6.0 0.00 0.00 0.00 46 1015.2
20260506212541 58 265 1.0 6.0 0.00 0.00 0.00 44 1015.2
20260506212041 58 257 1.0 12.0 0.00 0.00 0.00 43 1015.2
20260506211549 59 51 1.0 12.0 0.00 0.00 0.00 43 1015.2
20260506211038 59 168 2.0 9.0 0.00 0.00 0.00 43 1015.2
20260506210539 59 250 1.0 8.0 0.00 0.00 0.00 44 1015.3
20260506210054 58 0 1.0 8.0 0.00 0.00 0.00 44 1015.3
20260506205541 58 178 2.0 7.0 0.00 0.00 0.00 41 1015.3
20260506205041 59 284 1.0 6.0 0.00 0.00 0.00 42 1015.3
20260506204559 59 250 1.0 6.0 0.00 0.00 0.00 41 1015.2
20260506204045 59 178 1.0 6.0 0.00 0.00 0.00 42 1015.4
20260506203541 60 0 1.0 6.0 0.00 0.00 0.00 44 1015.4
20260506203048 59 0 1.0 6.0 0.00 0.00 0.00 44 1015.2
20260506202541 59 68 1.0 6.0 0.00 0.00 0.00 42 1015.3
20260506202041 59 265 2.0 10.0 0.00 0.00 0.00 43 1015.4
20260506201553 58 0 2.0 10.0 0.00 0.00 0.00 43 1015.5
20260506201040 58 265 1.0 10.0 0.00 0.00 0.00 44 1015.5
20260506200540 58 26 1.0 6.0 0.00 0.00 0.00 43 1015.5
20260506200107 58 261 1.0 6.0 0.00 0.00 0.00 43 1015.4
20260506195541 59 0 1.0 6.0 0.00 0.00 0.00 43 1015.4
20260506195042 59 238 1.0 7.0 0.00 0.00 0.00 45 1015.4
20260506194557 59 120 1.0 10.0 0.00 0.00 0.00 46 1015.5
20260506194040 59 247 1.0 10.0 0.00 0.00 0.00 43 1015.5
20260506193543 58 265 1.0 11.0 0.00 0.00 0.00 47 1015.6
20260506193048 58 265 2.0 11.0 0.00 0.00 0.00 44 1015.7
20260506192540 58 51 2.0 6.0 0.00 0.00 0.00 47 1015.7
20260506192043 58 275 1.0 7.0 0.00 0.00 0.00 46 1015.6
20260506191545 58 0 1.0 7.0 0.00 0.00 0.00 47 1015.8
20260506191041 58 242 1.0 7.0 0.00 0.00 0.00 45 1015.9
20260506190541 58 254 1.0 8.0 0.00 0.00 0.00 44 1015.8
20260506190055 58 0 1.0 8.0 0.00 0.00 0.00 44 1015.8
20260506185541 58 265 1.0 7.0 0.00 0.00 0.00 48 1015.8
20260506185045 58 178 1.0 5.0 0.00 0.00 0.00 46 1015.7
20260506184549 58 309 1.0 7.0 0.00 0.00 0.00 45 1015.8
20260506184040 58 265 1.0 10.0 0.00 0.00 0.00 46 1015.7
20260506183541 58 196 2.0 10.0 0.00 0.00 0.00 47 1015.6
20260506183102 58 31 2.0 10.0 0.00 0.00 0.00 44 1015.6
20260506182540 58 108 1.0 5.0 0.00 0.00 0.00 47 1015.6
20260506182041 58 9 1.0 5.0 0.00 0.00 0.00 50 1015.5
20260506181557 57 259 1.0 8.0 0.00 0.00 0.00 50 1015.5
20260506181039 57 171 1.0 8.0 0.00 0.00 0.00 49 1015.6
20260506180543 57 178 0.0 4.0 0.00 0.00 0.00 50 1015.6
20260506180056 56 18 1.0 5.0 0.00 0.00 0.00 48 1015.6
20260506175544 56 336 1.0 5.0 0.00 0.00 0.00 48 1015.8
20260506175040 56 279 1.0 5.0 0.00 0.00 0.00 48 1015.7
20260506174550 56 265 1.0 5.0 0.00 0.00 0.00 47 1015.7
20260506174038 57 175 1.0 6.0 0.00 0.00 0.00 48 1015.7
20260506173540 56 196 1.0 6.0 0.00 0.00 0.00 48 1015.7
20260506173054 56 309 0.0 8.0 0.00 0.00 0.00 50 1015.8
20260506172543 56 316 1.0 8.0 0.00 0.00 0.00 51 1015.9
20260506172042 56 48 1.0 6.0 0.00 0.00 0.00 49 1015.9
20260506171549 56 221 1.0 7.0 0.00 0.00 0.00 49 1016.0
20260506171041 56 0 1.0 7.0 0.00 0.00 0.00 49 1015.9
20260506170541 55 88 1.0 7.0 0.00 0.00 0.00 51 1016.0
20260506170049 55 265 1.0 7.0 0.00 0.00 0.00 49 1016.0
20260506165540 55 291 2.0 7.0 0.00 0.00 0.00 50 1016.1
20260506165039 55 319 1.0 6.0 0.00 0.00 0.00 54 1015.9
20260506164551 54 221 1.0 5.0 0.00 0.00 0.00 53 1016.1
20260506164038 54 51 0.0 7.0 0.00 0.00 0.00 53 1016.0
20260506163540 54 334 1.0 7.0 0.00 0.00 0.00 52 1016.0
20260506163054 53 344 1.0 5.0 0.00 0.00 0.00 55 1015.9
20260506162540 53 0 0.0 3.0 0.00 0.00 0.00 57 1015.9
20260506162040 53 178 0.0 6.0 0.00 0.00 0.00 59 1015.9
20260506161602 53 0 1.0 6.0 0.00 0.00 0.00 60 1015.8
20260506161038 52 221 1.0 6.0 0.00 0.00 0.00 60 1015.7
20260506160541 52 309 0.0 4.0 0.00 0.00 0.00 65 1015.7
20260506160049 52 282 0.0 4.0 0.00 0.00 0.00 62 1015.7
20260506155542 51 238 0.0 6.0 0.00 0.00 0.00 65 1015.7
20260506155041 51 0 0.0 6.0 0.00 0.00 0.00 65 1015.6
20260506154548 51 344 0.0 3.0 0.00 0.00 0.00 65 1015.6
20260506154041 51 0 0.0 3.0 0.00 0.00 0.00 70 1015.5
20260506153539 50 0 0.0 3.0 0.00 0.00 0.00 69 1015.4
20260506153051 50 0 0.0 2.0 0.00 0.00 0.00 72 1015.4
20260506152541 50 0 0.0 2.0 0.00 0.00 0.00 71 1015.4
20260506152043 50 93 0.0 2.0 0.00 0.00 0.00 72 1015.2
20260506151603 49 9 0.0 2.0 0.00 0.00 0.00 75 1015.2
20260506151038 49 56 0.0 3.0 0.00 0.00 0.00 75 1015.1
20260506150538 49 93 0.0 3.0 0.00 0.00 0.00 75 1015.1
20260506150054 48 0 0.0 3.0 0.00 0.00 0.00 74 1015.0
20260506145539 48 0 0.0 2.0 0.00 0.00 0.00 76 1015.0
20260506145042 48 254 0.0 3.0 0.00 0.00 0.00 76 1014.9
20260506144557 48 137 0.0 3.0 0.00 0.00 0.00 76 1014.8
20260506144041 48 0 0.0 3.0 0.00 0.00 0.00 78 1014.9
20260506143539 47 34 0.0 2.0 0.00 0.00 0.00 78 1014.7
20260506143053 47 0 0.0 2.0 0.00 0.00 0.00 77 1014.7
20260506142538 47 221 0.0 3.0 0.00 0.00 0.00 77 1014.8
20260506142038 47 0 0.0 3.0 0.00 0.00 0.00 78 1014.9
20260506141552 47 61 0.0 3.0 0.00 0.00 0.00 78 1015.0
20260506141041 47 255 0.0 3.0 0.00 0.00 0.00 78 1015.0
20260506140540 46 0 0.0 3.0 0.00 0.00 0.00 78 1015.0
20260506135538 46 51 0.0 2.0 0.00 0.01 0.00 81 1015.0
20260506135038 46 257 0.0 2.0 0.00 0.01 0.00 81 1015.0
20260506134550 45 0 0.0 2.0 0.00 0.01 0.00 80 1015.1
20260506134038 45 34 0.0 1.0 0.00 0.01 0.00 82 1015.2
20260506133541 45 0 0.0 2.0 0.00 0.01 0.00 81 1015.1
20260506133054 45 0 0.0 2.0 0.00 0.01 0.00 81 1015.0
20260506132541 45 51 0.0 2.0 0.00 0.01 0.00 82 1015.1
20260506132043 44 0 0.0 2.0 0.00 0.01 0.00 83 1015.2
20260506131552 44 0 0.0 1.0 0.00 0.01 0.00 84 1015.4
20260506131040 44 0 0.0 2.0 0.00 0.01 0.00 85 1015.3
20260506130540 44 0 0.0 2.0 0.00 0.01 0.00 85 1015.2
20260506130108 44 0 0.0 2.0 0.00 0.01 0.00 85 1015.1
20260506125540 44 0 0.0 1.0 0.00 0.03 0.00 85 1014.9
20260506125040 44 0 0.0 2.0 0.00 0.03 0.00 85 1014.7
20260506124550 44 0 0.0 2.0 0.00 0.03 0.00 85 1014.6
20260506124038 44 0 0.0 1.0 0.00 0.03 0.00 86 1014.4
20260506123538 43 0 0.0 1.0 0.00 0.03 0.00 86 1014.3
20260506123050 43 0 0.0 2.0 0.00 0.03 0.00 86 1014.2
20260506122538 43 0 0.0 2.0 0.00 0.03 0.00 87 1014.1
20260506122038 43 0 0.0 2.0 0.00 0.03 0.00 88 1014.0
20260506121549 43 0 0.0 1.0 0.00 0.03 0.00 88 1013.8
20260506121041 43 265 0.0 1.0 0.00 0.03 0.00 87 1013.7
20260506120541 42 137 0.0 1.0 0.00 0.03 0.00 88 1013.7
20260506120048 42 0 0.0 1.0 0.00 0.03 0.00 87 1013.7
20260506115541 42 238 0.0 1.0 0.00 0.03 0.00 87 1013.7
20260506115039 42 0 0.0 1.0 0.00 0.03 0.00 86 1013.5
20260506114551 42 221 0.0 1.0 0.00 0.03 0.00 86 1013.4
20260506114040 42 0 0.0 1.0 0.00 0.03 0.00 86 1013.2
20260506113540 42 221 0.0 2.0 0.00 0.03 0.00 85 1013.2
20260506113104 42 0 0.0 2.0 0.00 0.03 0.00 85 1012.9
20260506112541 42 265 0.0 2.0 0.00 0.03 0.00 85 1012.7
20260506112038 42 265 0.0 2.0 0.00 0.03 0.00 85 1012.6
20260506111601 42 0 0.0 2.0 0.00 0.03 0.00 85 1012.6
20260506111040 42 0 0.0 1.0 0.00 0.03 0.00 86 1012.5
20260506110539 42 51 0.0 2.0 0.00 0.03 0.00 86 1012.6
20260506110056 42 0 0.0 2.0 0.00 0.03 0.00 87 1012.5
20260506105540 42 0 0.0 2.0 0.00 0.03 0.00 87 1012.5
20260506105041 42 0 0.0 2.0 0.00 0.03 0.00 87 1012.5
20260506104610 42 0 0.0 2.0 0.00 0.03 0.00 88 1012.4
20260506104041 42 0 0.0 1.0 0.00 0.03 0.00 88 1012.3
20260506103541 42 0 0.0 1.0 0.00 0.03 0.00 89 1012.2
20260506103049 42 0 0.0 1.0 0.00 0.03 0.00 89 1012.1
20260506102541 42 0 0.0 1.0 0.00 0.03 0.00 89 1012.1
20260506102041 42 0 0.0 1.0 0.00 0.03 0.00 89 1011.9
20260506101556 42 0 0.0 1.0 0.00 0.03 0.00 89 1012.2
20260506101040 42 0 0.0 1.0 0.00 0.03 0.00 89 1012.2
20260506100538 42 0 0.0 2.0 0.00 0.03 0.00 89 1012.2
20260506100104 42 0 0.0 2.0 0.00 0.03 0.00 89 1012.1
20260506095543 43 265 0.0 1.0 0.00 0.03 0.00 90 1012.2
20260506095040 43 0 0.0 1.0 0.00 0.03 0.00 90 1012.3
20260506094555 43 0 0.0 1.0 0.00 0.03 0.00 90 1012.0
20260506094039 43 196 0.0 1.0 0.00 0.03 0.00 90 1012.0
20260506093542 43 0 0.0 1.0 0.00 0.03 0.00 90 1011.9
20260506093047 43 0 0.0 1.0 0.00 0.03 0.00 90 1012.0
20260506092542 43 0 0.0 1.0 0.00 0.03 0.00 90 1011.7
20260506092042 43 0 0.0 2.0 0.00 0.03 0.00 90 1011.6
20260506091548 43 0 0.0 2.0 0.00 0.03 0.00 90 1011.6
20260506091043 43 0 0.0 1.0 0.00 0.03 0.00 91 1011.6
20260506090544 43 0 0.0 1.0 0.00 0.03 0.00 91 1011.7
20260506090047 43 0 0.0 1.0 0.00 0.03 0.00 91 1011.6
20260506085540 43 0 0.0 1.0 0.00 0.03 0.00 91 1011.6
20260506085040 43 0 0.0 1.0 0.00 0.03 0.00 91 1011.7
20260506084550 44 0 0.0 1.0 0.00 0.03 0.00 91 1012.0
20260506084040 44 0 0.0 1.0 0.00 0.03 0.00 91 1011.9
20260506083541 44 0 0.0 1.0 0.00 0.03 0.00 91 1011.9
20260506083050 44 0 0.0 1.0 0.00 0.03 0.00 91 1012.0
20260506082542 44 0 0.0 1.0 0.00 0.03 0.00 91 1011.9
20260506082044 44 0 0.0 1.0 0.00 0.03 0.00 91 1011.8
20260506081549 44 0 0.0 1.0 0.00 0.03 0.00 91 1011.8
20260506081041 44 0 0.0 1.0 0.00 0.03 0.00 91 1011.7
20260506080541 44 265 0.0 1.0 0.00 0.03 0.00 90 1011.5
20260506073050 45 0 0.0 1.0 0.00 0.03 0.00 89 1011.3
20260506072538 45 0 0.0 1.0 0.00 0.03 0.00 89 1011.3
20260506072043 45 221 0.0 1.0 0.00 0.03 0.00 88 1011.3
20260506071606 45 0 0.0 1.0 0.00 0.03 0.00 88 1011.3
20260506071038 45 247 0.0 1.0 0.00 0.03 0.00 87 1011.4
20260506070541 46 0 0.0 1.0 0.00 0.03 0.00 87 1011.2
20260506062039 47 0 0.0 0.0 0.00 0.03 0.00 86 1011.1
20260506061543 47 0 0.0 0.0 0.00 0.03 0.00 86 1011.1
20260506061038 47 0 0.0 0.0 0.00 0.03 0.00 87 1010.9
20260506060541 47 0 0.0 0.0 0.00 0.03 0.00 87 1011.0
20260506051043 48 0 0.0 1.0 0.00 0.03 0.00 83 1011.0
20260506050542 48 0 0.0 1.0 0.00 0.03 0.00 83 1011.0
20260506045041 48 0 0.0 1.0 0.00 0.03 0.03 84 1010.9
20260506044555 49 0 0.0 1.0 0.00 0.03 0.03 84 1011.1
20260506044038 49 0 0.0 1.0 0.00 0.03 0.03 83 1010.9
20260506043545 49 0 0.0 1.0 0.00 0.03 0.03 83 1010.8
20260506043043 49 0 0.0 1.0 0.00 0.03 0.03 83 1010.8
20260506042540 49 178 0.0 1.0 0.00 0.03 0.03 83 1010.9
20260506042041 49 0 0.0 1.0 0.00 0.03 0.03 83 1010.9
20260506041600 49 178 0.0 1.0 0.00 0.03 0.03 83 1010.8
20260506041041 49 0 0.0 0.0 0.00 0.03 0.03 83 1010.7
20260506040542 49 0 0.0 0.0 0.00 0.03 0.03 83 1010.7
20260506040049 49 0 0.0 0.0 0.00 0.03 0.03 83 1010.7
20260506035544 49 0 0.0 0.0 0.00 0.05 0.03 83 1011.0
20260506035043 49 0 0.0 0.0 0.00 0.05 0.03 83 1011.0
20260506034549 49 0 0.0 0.0 0.00 0.05 0.03 83 1011.0
20260506034041 49 0 0.0 0.0 0.00 0.05 0.03 83 1011.0
20260506033544 49 0 0.0 0.0 0.00 0.05 0.03 83 1011.0
20260506033048 50 0 0.0 0.0 0.00 0.05 0.03 84 1011.0
20260506032542 50 0 0.0 0.0 0.00 0.05 0.03 83 1011.2
20260506032041 50 0 0.0 0.0 0.00 0.05 0.03 83 1010.9
20260506031552 50 0 0.0 0.0 0.00 0.05 0.03 84 1010.9
20260506031041 50 0 0.0 0.0 0.00 0.05 0.03 83 1010.9
20260506030541 50 0 0.0 1.0 0.00 0.05 0.03 82 1010.9
20260506030046 50 0 0.0 1.0 0.00 0.05 0.03 81 1011.0
20260506025543 50 0 0.0 1.0 0.00 0.26 0.03 82 1011.0
20260506025040 50 0 0.0 1.0 0.00 0.26 0.03 82 1010.9
20260506024552 50 0 0.0 1.0 0.00 0.26 0.03 82 1011.1
20260506024040 50 0 0.0 1.0 0.00 0.26 0.03 82 1011.0
20260506023540 50 0 0.0 1.0 0.00 0.26 0.03 81 1011.0
20260506023051 50 0 0.0 1.0 0.00 0.26 0.03 81 1010.8
20260506022540 50 0 0.0 1.0 0.00 0.26 0.03 81 1010.9
20260506022040 50 0 0.0 1.0 0.00 0.26 0.03 80 1010.8
20260506021554 50 0 0.0 1.0 0.00 0.26 0.03 80 1010.6
20260506021039 50 0 0.0 1.0 0.00 0.26 0.03 81 1010.4
20260506020540 50 0 0.0 1.0 0.00 0.26 0.03 81 1010.3
20260506020051 51 0 0.0 1.0 0.00 0.26 0.03 80 1010.2
20260506015541 51 0 0.0 1.0 0.00 0.26 0.03 78 1010.0
20260506015041 51 0 0.0 1.0 0.00 0.26 0.03 76 1010.0
20260506014555 51 0 0.0 1.0 0.00 0.26 0.03 77 1010.0
20260506014040 51 0 0.0 1.0 0.00 0.26 0.03 77 1010.1
20260506013539 51 0 0.0 1.0 0.00 0.26 0.03 77 1010.3
20260506013043 51 178 0.0 1.0 0.00 0.26 0.03 76 1010.2
20260506012540 51 0 0.0 1.0 0.00 0.26 0.03 76 1010.1
20260506012040 51 0 0.0 1.0 0.00 0.26 0.03 76 1009.9
20260506011552 51 0 0.0 1.0 0.00 0.26 0.03 77 1009.9
20260506011040 51 0 0.0 1.0 0.00 0.26 0.03 77 1009.9
20260506010543 51 0 0.0 1.0 0.00 0.26 0.03 75 1009.7
20260506010048 51 0 0.0 1.0 0.00 0.26 0.03 74 1009.6
20260506005542 51 0 0.0 1.0 0.00 0.26 0.03 74 1009.6
20260506005040 51 0 0.0 1.0 0.00 0.26 0.03 74 1009.7
20260506004550 52 0 0.0 1.0 0.00 0.26 0.03 75 1009.6
20260506004041 52 0 0.0 1.0 0.00 0.26 0.03 73 1009.5
20260506003540 52 0 0.0 1.0 0.00 0.26 0.03 70 1009.5
20260506003049 52 0 0.0 1.0 0.00 0.26 0.03 70 1009.4
20260506002544 52 0 0.0 1.0 0.00 0.26 0.03 70 1009.4
20260506002040 52 0 0.0 1.0 0.00 0.26 0.03 69 1009.3
20260506001614 52 0 0.0 1.0 0.00 0.26 0.03 70 1009.3
20260506001040 52 0 0.0 1.0 0.00 0.26 0.03 70 1009.3
20260506000541 52 0 0.0 1.0 0.00 0.26 0.03 69 1009.2
20260506000051 52 0 0.0 1.0 0.00 0.26 0.03 69 1009.3
20260505235541 52 0 0.0 1.0 0.00 0.26 0.03 67 1009.3
20260505235041 52 0 0.0 1.0 0.00 0.26 0.03 67 1009.3
20260505234552 52 0 0.0 1.0 0.00 0.26 0.03 67 1009.3
20260505234042 52 0 0.0 2.0 0.00 0.26 0.03 66 1009.4
20260505233540 52 0 0.0 2.0 0.00 0.26 0.03 65 1009.4
20260505233054 52 0 0.0 2.0 0.00 0.26 0.03 65 1009.5
20260505232540 52 0 0.0 1.0 0.00 0.26 0.03 66 1009.6
20260505232040 53 0 0.0 1.0 0.00 0.26 0.03 66 1009.5
20260505231554 53 0 0.0 1.0 0.00 0.26 0.03 66 1009.5
20260505231044 53 0 0.0 2.0 0.00 0.26 0.03 66 1009.5
20260505230540 53 247 0.0 2.0 0.00 0.26 0.03 65 1009.5
20260505230113 53 0 0.0 1.0 0.00 0.26 0.03 64 1009.5
20260505225541 53 0 0.0 2.0 0.00 0.26 0.03 64 1009.3
20260505225040 53 34 0.0 3.0 0.00 0.26 0.03 63 1009.4
20260505224550 53 68 0.0 4.0 0.00 0.26 0.03 62 1009.6
20260505224041 53 80 0.0 4.0 0.00 0.26 0.03 60 1009.5
20260505223540 53 0 0.0 4.0 0.00 0.26 0.03 60 1009.6
20260505223057 53 238 0.0 4.0 0.00 0.26 0.03 59 1009.5
20260505222540 53 41 0.0 4.0 0.00 0.26 0.03 59 1009.4
20260505222042 53 278 1.0 3.0 0.00 0.26 0.03 60 1009.4
20260505221554 53 0 0.0 4.0 0.00 0.26 0.03 60 1009.6
20260505221039 53 51 1.0 4.0 0.00 0.26 0.03 60 1009.6
20260505220545 53 0 0.0 4.0 0.00 0.26 0.03 61 1009.5
20260505220100 53 41 0.0 4.0 0.00 0.26 0.03 60 1009.5
20260505215539 53 265 1.0 4.0 0.00 0.26 0.03 61 1009.6
20260505215039 53 281 0.0 3.0 0.00 0.26 0.03 62 1009.5
20260505214600 53 256 0.0 3.0 0.00 0.26 0.03 64 1009.7
20260505214037 53 0 0.0 2.0 0.00 0.26 0.03 68 1009.6
20260505213539 53 0 0.0 2.0 0.00 0.26 0.03 71 1009.6